RH
42 40 42 42 41 39 37 30 19 15 14 13 13 12 16 26 37 46 52 56 61 67 71 71 69 66 66 66 66 62 59 61 56 52 59 67 74 72 71 73 73 77 79
56 54 51 55 54 46 37 25 19 16 15 15 15 14 12 13 20 31 38 52 61 69 74 78 77 76 74 72 71 69 72 65 67 67 69 71 72 81 81 77 80 80 82
79 71 64 60 51 43 31 23 19 18 18 18 17 17 13 10 11 17 22 28 39 61 75 80 82 81 82 82 92 91 79 78 79 72 77 73 83 95 95 83 84 83 76
69 66 63 56 45 40 31 27 21 21 22 20 19 17 14 12 11 13 17 26 30 31 41 69 81 87 86 91 97 98 91 82 79 85 78 83 79 92 96 90 88 86 82
65 63 56 54 47 40 36 34 33 28 25 22 18 17 17 14 13 13 16 20 30 36 35 42 51 70 88 89 96 97 98 93 93 89 89 79 79 75 79 88 88 87 86
63 56 51 45 45 41 40 39 35 31 28 23 21 21 20 18 19 18 16 16 22 28 31 37 43 45 60 61 76 97 96 98 94 93 94 85 86 84 85 82 90 90 89
51 47 45 47 41 38 37 36 34 37 35 28 24 25 26 28 25 24 19 17 17 21 32 31 32 38 44 51 63 66 81 96 97 96 97 92 85 92 92 86 87 87 87
50 49 48 38 34 39 38 38 42 43 40 36 31 28 30 38 36 31 27 21 21 21 24 34 36 37 31 43 40 49 54 64 80 88 96 97 95 90 88 85 83 82 83
49 40 39 32 38 38 42 45 47 45 43 41 39 36 34 36 43 37 33 32 26 27 24 30 33 33 37 34 38 38 38 49 53 64 76 78 79 95 92 86 83 80 80
42 39 40 36 40 44 48 49 47 49 46 43 42 41 40 40 47 47 42 41 40 35 34 28 36 36 25 25 37 34 37 37 46 48 46 59 61 62 64 78 85 85 84
42 43 40 42 47 49 47 46 49 50 51 50 47 46 46 43 46 52 50 47 46 45 43 43 39 38 30 24 22 21 25 30 39 34 35 40 49 43 51 52 56 62 68
45 43 45 50 49 47 44 46 48 50 50 49 50 49 48 48 47 51 53 51 49 48 48 47 46 44 45 41 28 19 20 16 19 26 34 39 34 37 42 44 43 40 48
46 47 52 51 47 45 46 50 52 53 54 56 55 51 49 49 47 48 49 49 51 49 48 50 46 44 43 44 44 38 23 20 16 13 15 18 26 34 38 38 34 43 47
47 51 51 47 44 45 49 54 56 55 57 59 56 53 50 51 53 53 54 52 49 48 47 46 45 43 42 42 42 43 40 39 32 23 20 15 13 12 16 21 26 33 38
50 52 48 45 42 44 46 49 54 58 60 60 56 55 54 54 63 62 59 56 52 49 46 43 41 40 41 41 42 41 41 42 39 35 28 25 23 23 16 12 13 16 19
53 49 44 40 39 44 47 52 58 64 64 59 55 58 60 60 65 63 60 58 51 47 44 40 40 40 39 40 41 41 39 38 37 39 38 35 32 28 24 23 23 20 16
51 44 42 40 44 48 51 52 55 61 63 60 59 62 66 67 67 65 56 54 51 46 41 38 37 36 37 38 38 39 42 43 42 38 36 34 32 30 27 25 24 22 23
47 41 40 42 46 49 54 54 57 59 62 61 60 63 66 65 67 61 55 53 47 44 41 39 38 37 37 36 35 35 37 39 37 37 39 37 32 28 26 25 23 22 21
43 44 43 46 48 49 54 61 59 59 62 64 64 67 68 65 63 61 58 51 47 43 40 39 38 37 35 35 34 34 35 38 36 36 35 34 31 29 28 26 24 23 23
45 45 46 45 48 54 56 58 63 65 64 65 68 73 67 64 62 59 54 50 47 43 42 41 39 36 34 33 32 31 32 36 37 37 38 38 35 33 31 29 27 26 24
40 42 44 44 45 49 53 54 59 67 71 70 70 67 67 67 65 59 53 48 45 43 42 38 36 34 33 33 32 31 31 32 35 35 36 35 34 31 31 28 26 25 25
47 45 44 44 49 53 55 63 63 66 65 63 63 69 70 66 61 55 51 48 46 44 41 39 37 36 35 34 32 31 32 34 34 35 35 34 33 30 27 25 25 25 26
49 50 49 55 56 54 53 52 62 61 60 64 70 68 65 62 57 55 52 48 46 44 42 38 35 33 31 29 28 29 31 32 34 36 38 36 31 29 28 27 27 26 26
50 51 52 50 46 49 52 54 54 62 72 74 72 70 65 61 57 52 48 43 36 30 26 25 26 26 27 28 30 32 35 38 41 41 38 34 32 31 30 30 30 31 32
47 47 47 46 48 50 51 59 71 77 76 73 69 64 60 53 45 36 27 25 26 27 28 28 30 32 33 37 40 43 46 47 45 41 38 36 34 34 34 35 36 37 38
52 51 50 50 52 59 68 76 77 74 71 66 60 52 41 29 24 25 27 28 29 29 30 34 37 41 44 46 47 50 51 51 47 45 43 41 40 38 38 38 41 43 43